Starlink 5214

operational
NORAD ID: 54762 Int'l Des: 2022-175 Owner: SPXS Country: US Constellation: starlink
LEOCIRCULAR

关于 Starlink 5214

正在加载描述...

实时位置

正在加载3D地球...

即将过境

高度历史

Altitude vs Time

uPlot chart will show altitude changes over time

两行轨道根数

1 54762U 22175E 25257.32980826 .00002224 00000-0 15778-3 0 9991
2 54762 53.2158 115.9048 0001141 84.2803 275.8319 15.08841756153290
Epoch: Sep 14, 2025 • Age: 27 hours

当前状态

高度 539.9 km
速度 7.59 km/s
星下点 5.94°N, 43.99°W
发射日期 Dec 17, 2022
运行时间 2.7 years
类型 internet

技术详情

分类 Payload
质量 305.00 kg
干质量 290.00 kg
总质量 305.00 kg
长度 0.20 m
直径 2.80 m
跨度 9.00 m
形状 Box + pan
制造商 SPXS
平台类型 Starlink
阶段状态 In Orbit
所有者/国家 SPXS/US

大型星座

Loading constellations...